This demonstration page uses our WeatherBlox Daily Observations layout. Learn more.

41.55636, -103.73856

Hourly Observations for December 12, 2019

Temp ( °F °C ) Dew Point ( °F °C ) Humidity (%) Winds ( mph kmh ) Pressure ( in mb ) Visibility ( mi km ) Precip ( " mm )
12:58 am 00:58 Mostly Cloudy 42 5.8 17 -8.4 36 36 W 14 22 30 1016 10 16.0934 0 0
1:58 am 01:58 Mostly Cloudy 42 5.6 19 -7.4 39 39 W 18 30 29.99 1016 10 16.0934 0 0
2:58 am 02:58 Mostly Cloudy 40 4.2 20 -6.8 45 45 WNW 15 24 30 1016 10 16.0934 0 0
3:58 am 03:58 Mostly Cloudy 38 3.6 20 -6.6 48 48 WNW 15 24 30 1016 10 16.0934 0 0
4:58 am 04:58 Clear 37 2.6 22 -5.6 55 55 WNW 16 26 29.97 1015 10 16.0934 0 0
5:58 am 05:58 Clear 37 2.6 23 -4.8 59 59 WNW 15 24 29.99 1016 10 16.0934 0 0
7:58 am 07:58 Clear 37 3 23 -4.8 57 57 W 9 15 30.01 1016 10 16.0934 0 0
8:58 am 08:58 Clear 35 1.7 24 -4.7 63 63 WNW 12 19 30.04 1017 10 16.0934 0 0
9:58 am 09:58 Mostly Cloudy 34 1.2 24 -4.6 66 66 NW 9 15 30.05 1018 10 16.0934 0 0
10:58 am 10:58 Mostly Cloudy 35 1.4 23 -4.8 64 64 N 3 6 30.06 1018 10 16.0934 0 0
11:58 am 11:58 Mostly Cloudy 35 1.7 24 -4.7 63 63 W 12 19 30.03 1017 10 16.0934 0 0
12:58 pm 12:58 Mostly Cloudy 37 2.9 24 -4.7 58 58 WNW 6 9 30.02 1017 10 16.0934 0 0
1:58 pm 13:58 Cloudy 38 3.1 25 -4 60 60 W 14 22 30.03 1017 10 16.0934 0 0
2:58 pm 14:58 Partly Cloudy 40 4.6 24 -4.3 53 53 WNW 12 19 30.02 1017 10 16.0934 0 0
3:58 pm 15:58 Sunny 38 3.5 26 -3.2 62 62 WSW 8 13 30.03 1017 10 16.0934 0 0
4:58 pm 16:58 Sunny 41 4.9 25 -3.8 54 54 W 10 17 30.03 1017 10 16.0934 0 0
5:58 pm 17:58 Sunny 45 7.1 25 -4.1 45 45 W 8 13 29.99 1016 10 16.0934 0 0
6:58 pm 18:58 Sunny 48 8.8 24 -4.5 39 39 WSW 20 31 29.95 1014 10 16.0934 0 0
7:58 pm 19:58 Mostly Cloudy 47 8.2 23 -5 39 39 SW 23 37 29.93 1014 10 16.0934 0 0
8:58 pm 20:58 Sunny 47 8.1 24 -4.3 42 42 SW 18 30 29.92 1013 10 16.0934 0 0
9:58 pm 21:58 Sunny 47 8.2 25 -4 42 42 W 14 22 29.92 1013 10 16.0934 0 0
10:58 pm 22:58 Sunny 45 7.4 26 -3.3 47 47 WNW 14 22 29.93 1014 10 16.0934 0 0
11:58 pm 23:58 Clear 39 3.9 26 -3.3 60 60 WSW 9 15 29.96 1014 10 16.0934 0 0

Powered by AerisWeather